1537549200.71,16971,23.25,74074.0,5.93,-22.07,-22.21,0,*7E
1537549201.97,16972,23.25,74072.8,5.93,-22.17,-22.37,0,*7B
1537549203.2,16973,23.25,74074.0,5.89,-22.37,-22.41,0,*72
1537549204.41,16974,23.25,74072.5,5.91,-22.37,-22.53,0,*7F
1537549205.61,16975,23.25,74072.3,5.91,-22.37,-22.53,0,*7E
1537549206.84,16976,23.25,74072.3,5.91,-22.31,-22.37,0,*79
1537549208.08,16977,23.25,74074.3,5.91,-22.21,-22.37,0,*79
1537549209.31,16978,23.25,74076.8,5.91,-22.03,-22.17,0,*74
1537549210.54,16979,23.25,74074.5,5.91,-21.47,-21.57,0,*71
1537549211.76,16980,23.25,74078.8,5.91,-21.47,-21.57,0,*77
1537549212.99,16981,23.25,74078.5,5.91,-21.43,-21.57,0,*72
1537549214.2,16982,23.25,74072.0,5.91,-21.63,-21.77,0,*71
1537549215.47,16983,23.25,74074.0,5.93,-21.57,-21.57,0,*77
1537549216.75,16984,23.25,74076.0,5.93,-21.57,-21.57,0,*70
1537549218.0,16985,23.25,74072.8,5.93,-21.43,-21.57,0,*74
1537549219.24,16986,23.25,74068.8,5.93,-21.39,-21.47,0,*7B
1537549220.49,16987,23.25,74070.8,5.93,-21.63,-21.87,0,*79
1537549221.75,16988,23.25,74072.0,5.93,-21.57,-21.73,0,*7A
1537549222.99,16989,23.25,74072.5,5.95,-21.73,-21.87,0,*70
1537549224.24,16990,23.25,74072.5,5.95,-21.87,-21.97,0,*72
1537549225.45,16991,23.25,74074.3,5.95,-21.73,-22.03,0,*76
1537549226.69,16992,23.25,74072.8,5.95,-22.11,-22.31,0,*73
1537549227.98,16993,23.25,74074.5,5.93,-22.21,-22.31,0,*77
1537549229.24,16994,23.25,74076.8,5.95,-22.17,-22.31,0,*73
1537549230.53,16995,23.25,74074.0,5.93,-22.21,-22.31,0,*71
1537549231.76,16996,23.25,74076.0,5.93,-22.37,-22.53,0,*71
1537549233.0,16997,23.25,74078.0,5.95,-22.31,-22.53,0,*70
1537549234.23,16998,23.25,74074.8,5.93,-22.03,-22.07,0,*79
1537549235.48,16999,23.25,74078.0,5.93,-22.07,-22.17,0,*7D
1537549236.71,17000,23.25,74076.5,5.95,-21.97,-22.03,0,*7C
1537549237.98,17001,23.25,74072.0,5.93,-21.87,-21.93,0,*70
1537549239.21,17002,23.25,74074.5,5.93,-21.43,-21.47,0,*72
1537549240.43,17003,23.25,74070.3,5.95,-21.43,-21.57,0,*74
1537549241.66,17004,23.25,74072.0,5.95,-21.43,-21.57,0,*73
1537549242.89,17005,23.25,74068.3,5.95,-21.39,-21.57,0,*7F
1537549244.12,17006,23.25,74070.8,5.95,-21.53,-21.73,0,*76
1537549245.39,17007,23.25,74076.3,5.95,-21.87,-22.17,0,*7F
1537549246.65,17008,23.25,74076.3,5.95,-22.31,-22.47,0,*7B
1537549247.88,17009,23.25,74074.3,5.93,-22.41,-22.57,0,*7A
1537549249.12,17010,23.25,74076.5,5.95,-22.27,-22.31,0,*74
1537549250.37,17011,23.25,74078.0,5.93,-22.31,-22.37,0,*72
1537549251.58,17012,23.25,74078.8,5.95,-22.27,-22.37,0,*70
1537549252.81,17013,23.25,74068.0,5.95,-21.97,-22.03,0,*7E
1537549254.07,17014,23.25,74068.8,5.95,-22.31,-22.31,0,*77
1537549255.34,17015,23.25,74068.3,5.95,-22.17,-22.17,0,*76
1537549256.6,17016,23.25,74068.5,5.95,-21.97,-22.17,0,*7E
1537549257.85,17017,23.25,74070.8,5.93,-22.21,-22.37,0,*75
1537549259.06,17018,23.25,74072.8,5.95,-22.27,-22.27,0,*7B
1537549260.33,17019,23.25,74076.8,5.95,-22.17,-22.17,0,*7A
1537549261.56,17020,23.25,74070.3,5.95,-22.11,-22.17,0,*76
1537549262.82,17021,23.25,74068.5,5.93,-22.07,-22.17,0,*76
1537549264.05,17022,23.25,74070.3,5.95,-21.73,-21.83,0,*7D
1537549265.32,17023,23.25,74070.3,5.95,-21.33,-21.23,0,*72
1537549266.52,17024,23.25,74072.5,5.95,-21.43,-21.43,0,*74
1537549267.76,17025,23.25,74078.0,5.95,-21.87,-22.03,0,*7A
1537549269.01,17026,23.25,74068.5,5.97,-21.83,-22.03,0,*7F
1537549270.26,17027,23.25,74070.8,5.97,-21.97,-22.03,0,*7B
1537549271.47,17028,23.25,74070.8,5.95,-22.11,-22.27,0,*7D
1537549272.68,17029,23.25,74068.0,5.95,-22.27,-22.37,0,*78
1537549273.91,17030,23.25,74068.8,5.95,-22.47,-22.53,0,*74
1537549275.15,17031,23.25,74066.8,5.93,-22.53,-22.83,0,*7B
1537549276.36,17032,23.25,74068.3,5.95,-22.37,-22.63,0,*72
1537549277.63,17033,23.25,74070.3,5.95,-22.47,-22.77,0,*71
1537549278.84,17034,23.25,74068.0,5.95,-22.67,-22.97,0,*7A
1537549280.07,17035,23.25,74070.5,5.93,-22.87,-22.97,0,*73
1537549281.31,17036,23.25,74070.8,5.93,-22.97,-22.97,0,*71
1537549282.54,17037,23.25,74072.5,5.95,-22.97,-23.03,0,*7A
1537549283.77,17038,23.25,74064.3,5.91,-22.87,-23.03,0,*70
1537549284.99,17039,23.25,74064.8,5.91,-22.97,-23.13,0,*71
1537549286.24,17040,23.25,74066.3,5.91,-23.03,-23.19,0,*79
1537549287.51,17041,23.25,74070.5,5.89,-23.09,-23.23,0,*72
1537549288.74,17042,23.25,74070.5,5.91,-23.03,-23.13,0,*71
1537549289.97,17043,23.25,74070.3,5.91,-23.03,-23.13,0,*70
1537549291.25,17044,23.25,74070.0,5.89,-23.19,-23.19,0,*7F
1537549292.52,17045,23.25,74070.8,5.89,-23.09,-23.23,0,*76
1537549293.77,17046,23.25,74072.0,5.89,-23.03,-23.09,0,*77
1537549295.03,17047,23.25,74072.0,5.89,-23.03,-23.09,0,*76
1537549296.25,17048,23.25,74072.0,5.85,-23.09,-23.13,0,*74
1537549297.45,17049,23.25,74068.0,5.83,-22.97,-23.13,0,*75
1537549298.68,17050,23.25,74064.8,5.83,-22.41,-22.47,0,*76
1537549299.88,17051,23.25,74064.5,5.83,-22.67,-22.97,0,*7E
1537549301.1,17052,23.25,74064.5,5.85,-22.83,-22.97,0,*71
1537549302.3,17053,23.25,74066.5,5.83,-22.83,-22.97,0,*76
1537549303.52,17054,23.25,74068.8,5.85,-22.83,-22.93,0,*73
1537549304.71,17055,23.25,74064.8,5.83,-22.67,-22.93,0,*7E
1537549305.92,17056,23.25,74066.8,5.83,-22.53,-22.83,0,*7B
1537549307.14,17057,23.25,74068.8,5.83,-22.63,-22.77,0,*72
1537549308.35,17058,23.25,74070.8,5.81,-22.83,-22.87,0,*7E
1537549309.57,17059,23.25,74072.0,5.79,-22.57,-22.73,0,*7A
1537549310.82,17060,23.25,74068.3,5.81,-22.47,-22.57,0,*70
1537549312.07,17061,23.25,74074.5,5.81,-22.37,-22.47,0,*77
1537549313.32,17062,23.25,74074.8,5.81,-22.37,-22.47,0,*74
1537549314.57,17063,23.25,74072.0,5.81,-22.03,-22.17,0,*77
1537549315.84,17064,23.25,74072.0,5.81,-22.31,-22.47,0,*74
1537549317.06,17065,23.25,74074.3,5.81,-22.37,-22.37,0,*74
1537549318.28,17066,23.25,74072.5,5.83,-22.47,-22.53,0,*70
1537549319.51,17067,23.25,74074.0,5.83,-22.11,-22.17,0,*72
1537549320.74,17068,23.25,74070.3,5.83,-21.87,-22.11,0,*77
1537549321.96,17069,23.25,74070.0,5.83,-22.17,-22.27,0,*79
1537549323.19,17070,23.25,74070.8,5.83,-21.73,-21.83,0,*7D
1537549324.45,17071,23.25,74074.8,5.85,-21.83,-21.97,0,*70
1537549325.67,17072,23.25,74068.8,5.85,-22.03,-22.27,0,*70
1537549326.88,17073,23.25,74072.5,5.85,-22.11,-22.27,0,*72
1537549328.11,17074,23.25,74072.5,5.83,-22.41,-22.47,0,*70
1537549329.36,17075,23.25,74072.5,5.83,-22.31,-22.47,0,*76
1537549330.58,17076,23.25,74070.8,5.83,-22.63,-22.77,0,*71
1537549331.8,17077,23.25,74074.0,5.85,-22.67,-22.93,0,*78
1537549333.0,17078,23.25,74074.0,5.83,-22.53,-22.67,0,*7D
1537549334.23,17079,23.25,74076.0,5.85,-22.53,-22.63,0,*7E
1537549335.46,17080,23.25,74078.3,5.83,-22.41,-22.47,0,*7B
1537549336.68,17081,23.25,74074.0,5.83,-21.67,-21.73,0,*79
1537549337.93,17082,23.25,74068.3,5.83,-21.23,-21.23,0,*7F
1537549339.18,17083,23.19,74068.5,5.85,-21.73,-21.87,0,*73
1537549340.4,17084,23.25,74066.8,5.85,-21.09,-21.17,0,*70
1537549341.62,17085,23.25,74064.0,5.85,-20.89,-20.93,0,*75
1537549342.86,17086,23.25,74070.8,5.85,-21.57,-21.73,0,*7B
1537549344.08,17087,23.25,74068.0,5.89,-21.47,-21.63,0,*76
1537549345.29,17088,23.25,74072.0,5.91,-21.47,-21.63,0,*70
1537549346.55,17089,23.25,74074.3,5.91,-21.23,-21.27,0,*73
1537549347.81,17090,23.25,74070.0,5.91,-20.79,-20.83,0,*7A
1537549349.09,17091,23.25,74066.5,5.93,-21.27,-21.27,0,*7C
1537549350.32,17092,23.25,74060.3,5.93,-21.09,-21.13,0,*74
1537549351.58,17093,23.25,74070.3,5.95,-21.33,-21.53,0,*7E
1537549352.85,17094,23.25,74072.8,5.93,-21.77,-21.87,0,*76
1537549354.1,17095,23.25,74074.0,5.95,-21.23,-21.33,0,*7F
1537549355.34,17096,23.25,74072.0,5.95,-20.79,-20.93,0,*79
1537549356.57,17097,23.25,74070.0,5.97,-21.73,-22.03,0,*7A
1537549357.8,17098,23.25,74066.8,5.99,-21.83,-22.07,0,*70
1537549359.05,17099,23.19,74070.8,5.99,-21.83,-21.97,0,*7B
1537549360.31,17100,23.25,74068.5,5.97,-22.27,-22.31,0,*76
1537549361.57,17101,23.19,74068.5,5.97,-22.31,-22.53,0,*74
1537549362.8,17102,23.25,74072.3,5.99,-22.27,-22.31,0,*7A
1537549364.04,17103,23.25,74074.3,5.99,-22.27,-22.47,0,*7A
1537549365.24,17104,23.25,74068.3,5.95,-22.11,-22.27,0,*72
1537549366.5,17105,23.19,74068.3,5.97,-22.17,-22.37,0,*76
1537549367.73,17106,23.25,74074.8,5.97,-22.37,-22.53,0,*75
1537549368.96,17107,23.25,74074.8,5.97,-22.37,-22.67,0,*73
1537549370.17,17108,23.19,74074.0,5.95,-22.27,-22.37,0,*7A
1537549371.42,17109,23.19,74072.5,5.93,-22.31,-22.41,0,*7B
1537549372.69,17110,23.19,74072.3,5.95,-22.17,-22.31,0,*76
1537549373.92,17111,23.25,74066.0,5.95,-21.97,-22.11,0,*7E
1537549375.13,17112,23.25,74066.8,5.95,-22.37,-22.63,0,*71
1537549376.34,17113,23.25,74062.3,5.95,-22.37,-22.53,0,*73
1537549377.58,17114,23.19,74064.5,5.95,-22.47,-22.53,0,*73
1537549378.79,17115,23.19,74064.0,5.95,-22.37,-22.53,0,*75
1537549380.02,17116,23.25,74070.0,5.93,-22.57,-22.67,0,*71
1537549381.26,17117,23.25,74074.0,5.93,-22.67,-22.83,0,*79
1537549382.49,17118,23.25,74074.3,5.93,-22.41,-22.57,0,*7B
1537549383.74,17119,23.25,74074.0,5.93,-22.31,-22.41,0,*7A
1537549384.99,17120,23.19,74068.3,5.93,-22.31,-22.41,0,*70
1537549386.23,17121,23.25,74066.0,5.93,-22.37,-22.37,0,*76
1537549387.46,17122,23.25,74068.5,5.93,-22.53,-22.67,0,*72
1537549388.69,17123,23.19,74070.0,5.93,-22.41,-22.67,0,*70
1537549389.93,17124,23.25,74074.3,5.93,-22.41,-22.53,0,*70
1537549391.19,17125,23.25,74072.5,5.93,-22.53,-22.73,0,*70
1537549392.45,17126,23.25,74074.5,5.93,-22.57,-22.73,0,*77
1537549393.68,17127,23.19,74072.5,5.93,-22.67,-22.83,0,*7A
1537549394.94,17128,23.25,74072.5,5.93,-22.57,-22.73,0,*79
1537549396.17,17129,23.25,74072.8,5.93,-22.41,-22.67,0,*7A
1537549397.42,17130,23.19,74070.8,5.93,-22.73,-22.87,0,*7D
1537549398.64,17131,23.19,74072.5,5.91,-22.57,-22.87,0,*78
1537549399.89,17132,23.19,74072.8,5.89,-22.73,-22.87,0,*74
1537549401.14,17133,23.19,74072.5,5.91,-22.73,-22.73,0,*77
1537549402.37,17134,23.19,74070.8,5.91,-22.53,-22.73,0,*72
1537549403.58,17135,23.25,74072.3,5.91,-22.57,-22.67,0,*72
1537549404.79,17136,23.19,74070.8,5.91,-22.41,-22.57,0,*75
1537549406.04,17137,23.19,74068.3,5.89,-22.73,-22.87,0,*71
1537549407.26,17138,23.25,74074.8,5.89,-22.87,-22.93,0,*70
1537549408.52,17139,23.19,74070.0,5.89,-22.77,-22.93,0,*7E
1537549409.77,17140,23.19,74066.8,5.89,-22.73,-22.87,0,*71
1537549410.99,17141,23.19,74074.5,5.85,-22.83,-23.09,0,*74
1537549412.22,17142,23.19,74070.5,5.89,-22.87,-23.09,0,*7F
1537549413.47,17143,23.25,74074.8,5.89,-22.87,-23.03,0,*74
1537549414.72,17144,23.19,74070.3,5.85,-22.53,-22.77,0,*74
1537549415.97,17145,23.19,74072.8,5.85,-22.53,-22.77,0,*75
1537549417.19,17146,23.19,74076.0,5.85,-22.53,-22.63,0,*73
1537549418.44,17147,23.19,74072.5,5.85,-22.27,-22.31,0,*76
1537549419.67,17148,23.19,74070.0,5.85,-22.31,-22.41,0,*79
1537549420.92,17149,23.19,74068.0,5.85,-22.31,-22.27,0,*78
1537549422.18,17150,23.19,74072.8,5.85,-21.97,-22.17,0,*7C
1537549423.41,17151,23.19,74070.3,5.89,-22.27,-22.27,0,*7A
1537549424.67,17152,23.19,74072.3,5.89,-22.57,-22.73,0,*7F
1537549425.95,17153,23.19,74072.3,5.89,-22.47,-22.47,0,*78
1537549427.18,17154,23.19,74074.3,5.89,-22.41,-22.57,0,*78
1537549428.41,17155,23.19,74072.0,5.89,-22.37,-22.57,0,*78
1537549429.67,17156,23.25,74078.3,5.89,-22.47,-22.63,0,*7B
1537549430.91,17157,23.19,74078.3,5.85,-22.63,-22.77,0,*75
1537549432.13,17158,23.19,74072.3,5.85,-22.53,-22.67,0,*78
1537549433.35,17159,23.19,74076.5,5.85,-22.11,-22.27,0,*7B
1537549434.59,17160,23.19,74074.5,5.85,-22.03,-22.17,0,*71
1537549435.83,17161,23.19,74072.0,5.85,-22.03,-22.17,0,*70
1537549437.11,17162,23.19,74070.3,5.85,-22.17,-22.31,0,*72
1537549438.34,17163,23.19,74074.3,5.89,-21.93,-22.07,0,*75
1537549439.55,17164,23.19,74072.3,5.85,-22.03,-22.11,0,*73
1537549440.77,17165,23.19,74074.3,5.89,-22.27,-22.37,0,*7C
1537549442.03,17166,23.19,74074.5,5.89,-22.37,-22.47,0,*79
1537549443.26,17167,23.19,74076.0,5.89,-21.93,-22.07,0,*71
1537549444.55,17168,23.19,74070.0,5.89,-21.53,-21.53,0,*70
1537549445.75,17169,23.19,74068.5,5.91,-21.47,-21.47,0,*78
1537549446.99,17170,23.19,74070.0,5.91,-22.03,-22.17,0,*75
1537549448.24,17171,23.19,74074.8,5.89,-22.41,-22.47,0,*7E
1537549449.51,17172,23.19,74072.5,5.91,-22.17,-22.17,0,*72
1537549450.72,17173,23.19,74070.5,5.91,-21.63,-21.77,0,*76
1537549451.95,17174,23.19,74070.0,5.91,-21.87,-22.07,0,*7F
1537549453.16,17175,23.19,74074.0,5.91,-21.77,-22.03,0,*75
1537549454.4,17176,23.19,74072.0,5.93,-21.77,-21.93,0,*7E
1537549455.6,17177,23.25,74074.3,5.95,-22.11,-22.27,0,*76
1537549456.84,17178,23.19,74076.0,5.93,-21.93,-22.07,0,*74
1537549458.12,17179,23.19,74074.5,5.93,-22.17,-22.21,0,*7E
1537549459.36,17180,23.19,74072.5,5.93,-22.37,-22.53,0,*7F
1537549460.59,17181,23.19,74072.8,5.91,-22.53,-22.73,0,*7C
1537549461.82,17182,23.19,74072.5,5.89,-22.37,-22.41,0,*75
1537549463.03,17183,23.19,74072.3,5.91,-22.53,-22.57,0,*78
1537549464.29,17184,23.19,74074.3,5.91,-22.21,-22.31,0,*7A
1537549465.5,17185,23.19,74072.3,5.91,-21.73,-21.93,0,*74
1537549466.71,17186,23.19,74070.5,5.91,-21.73,-21.77,0,*7D
1537549467.92,17187,23.25,74072.3,5.91,-21.77,-22.03,0,*78
1537549469.15,17188,23.19,74070.3,5.91,-22.07,-22.17,0,*76
1537549470.38,17189,23.19,74068.3,5.91,-22.07,-22.17,0,*77
1537549471.61,17190,23.19,74068.5,5.91,-21.73,-21.87,0,*75
1537549472.87,17191,23.19,74070.8,5.93,-21.57,-21.63,0,*7A
1537549474.13,17192,23.19,74070.8,5.95,-21.57,-21.67,0,*7B
1537549475.39,17193,23.19,74070.0,5.95,-21.67,-21.83,0,*73
1537549476.62,17194,23.19,74072.3,5.95,-21.97,-22.03,0,*70
1537549477.88,17195,23.19,74072.3,5.93,-21.73,-21.87,0,*72
1537549479.15,17196,23.19,74074.8,5.93,-21.87,-21.77,0,*75
1537549480.41,17197,23.19,74072.5,5.95,-21.57,-21.67,0,*7E
1537549481.67,17198,23.19,74072.5,5.95,-21.57,-21.83,0,*7B
1537549482.89,17199,23.19,74072.8,5.95,-21.57,-21.73,0,*75
1537549484.16,17200,23.19,74074.3,5.95,-21.53,-21.67,0,*77
1537549485.41,17201,23.19,74064.8,5.97,-21.39,-21.33,0,*79
1537549486.64,17202,23.19,74070.8,5.99,-21.33,-21.17,0,*78
1537549487.93,17203,23.19,74072.5,5.97,-21.57,-21.67,0,*72
1537549489.16,17204,23.19,74074.0,5.99,-21.77,-21.83,0,*73
1537549490.41,17205,23.19,74074.0,5.97,-21.43,-21.57,0,*72
1537549491.64,17206,23.19,74064.3,5.99,-21.47,-21.67,0,*78
1537549492.91,17207,23.19,74064.5,5.99,-21.53,-21.67,0,*7C
1537549494.14,17208,23.19,74070.8,5.99,-21.67,-21.93,0,*7F
1537549495.38,17209,23.19,74074.8,6.01,-21.73,-21.93,0,*79
1537549496.61,17210,23.19,74074.0,6.03,-21.73,-21.87,0,*76
1537549497.84,17211,23.19,74072.3,6.01,-21.47,-21.63,0,*78
1537549499.13,17212,23.19,74070.8,6.01,-21.27,-21.23,0,*79
1537549500.36,17213,23.19,74070.3,6.03,-20.99,-21.09,0,*76
1537549501.56,17214,23.19,74074.0,6.03,-21.09,-21.09,0,*79
1537549502.79,17215,23.19,74064.0,6.03,-21.23,-21.43,0,*7E
1537549504.05,17216,23.19,74070.0,6.03,-20.99,-20.99,0,*7B
1537549505.28,17217,23.19,74070.3,6.03,-21.57,-21.63,0,*7D
1537549506.53,17218,23.19,74070.8,6.05,-21.43,-21.57,0,*76
1537549507.79,17219,23.19,74070.8,6.05,-21.23,-21.17,0,*75
1537549509.07,17220,23.19,74070.8,6.05,-21.23,-21.27,0,*7C
1537549510.31,17221,23.19,74066.5,6.07,-21.43,-21.53,0,*7A
1537549511.57,17222,23.19,74068.3,6.07,-21.03,-21.03,0,*78
1537549512.8,17223,23.19,74070.3,6.07,-21.13,-20.99,0,*7A
1537549514.04,17224,23.19,74070.3,6.07,-21.03,-21.13,0,*7F
1537549515.28,17225,23.19,74068.0,6.13,-21.43,-21.57,0,*7F
1537549516.53,17226,23.19,74070.5,6.13,-21.33,-21.47,0,*7A
1537549517.76,17227,23.19,74070.0,6.13,-21.17,-21.09,0,*77
1537549518.98,17228,23.19,74074.8,6.13,-21.73,-21.73,0,*77
1537549520.26,17229,23.19,74076.5,6.13,-21.87,-21.87,0,*76
1537549521.47,17230,23.19,74074.3,6.15,-21.63,-21.77,0,*7D
1537549522.68,17231,23.19,74074.8,6.13,-22.07,-22.07,0,*7F
1537549523.94,17232,23.19,74078.8,6.13,-22.21,-22.27,0,*7A
1537549525.16,17233,23.19,74074.8,6.09,-22.27,-22.41,0,*76
1537549526.45,17234,23.19,74074.0,6.09,-22.31,-22.47,0,*70
1537549527.71,17235,23.19,74068.8,6.09,-21.83,-21.93,0,*71
1537549528.94,17236,23.19,74072.8,6.13,-21.77,-21.93,0,*72
1537549530.2,17237,23.19,74076.5,6.09,-21.97,-22.07,0,*78
1537549531.45,17238,23.19,74078.3,6.09,-21.97,-22.07,0,*77
1537549532.71,17239,23.19,74072.5,6.09,-22.11,-22.17,0,*7A
1537549533.95,17240,23.19,74078.5,6.09,-21.77,-21.93,0,*78
1537549535.18,17241,23.19,74078.3,6.13,-21.63,-21.77,0,*7D
1537549536.43,17242,23.19,74074.8,6.13,-21.57,-21.77,0,*79
1537549537.68,17243,23.19,74070.5,6.13,-21.33,-21.47,0,*79
1537549538.93,17244,23.19,74072.3,6.09,-21.67,-21.73,0,*73
1537549540.16,17245,23.19,74074.5,6.15,-21.57,-21.73,0,*7C
1537549541.39,17246,23.19,74072.3,6.15,-21.57,-21.77,0,*7B
1537549542.65,17247,23.19,74070.8,6.15,-21.87,-21.87,0,*78
1537549543.87,17248,23.19,74076.5,6.15,-21.47,-21.57,0,*76
1537549545.13,17249,23.19,74072.0,6.17,-21.27,-21.17,0,*77
1537549546.41,17250,23.19,74072.5,6.17,-21.27,-21.27,0,*7C
1537549547.67,17251,23.19,74078.3,6.17,-21.73,-21.83,0,*72
1537549548.92,17252,23.19,74074.8,6.15,-21.33,-21.33,0,*7C
1537549550.18,17253,23.19,74072.0,6.17,-21.03,-20.93,0,*77
1537549551.41,17254,23.19,74076.0,6.19,-21.09,-20.99,0,*7E
1537549552.64,17255,23.19,74074.8,6.19,-21.03,-21.09,0,*7D
1537549553.87,17256,23.19,74070.5,6.19,-21.03,-21.09,0,*7E
1537549555.11,17257,23.19,74078.3,6.21,-20.99,-20.89,0,*7F
1537549556.3,17258,23.19,74076.8,6.21,-21.09,-21.09,0,*71
1537549557.54,17259,23.19,74078.8,6.25,-21.17,-21.27,0,*77
1537549558.79,17260,23.19,74078.8,6.23,-21.33,-21.43,0,*7F
1537549560.05,17261,23.13,74074.8,6.23,-21.17,-21.27,0,*7A
1537549561.31,17262,23.19,74074.3,6.23,-21.17,-21.27,0,*79
1537549562.6,17263,23.19,74076.3,6.23,-21.03,-21.03,0,*7B
1537549563.86,17264,23.19,74072.3,6.27,-20.79,-20.89,0,*77
1537549565.09,17265,23.19,74074.8,6.25,-21.27,-21.43,0,*79
1537549566.33,17266,23.19,74074.0,6.25,-21.13,-21.27,0,*7F
1537549567.56,17267,23.19,74076.3,6.25,-20.99,-20.93,0,*73
1537549568.8,17268,23.19,74076.5,6.27,-20.89,-20.73,0,*71
1537549570.03,17269,23.19,74078.0,6.29,-20.99,-21.09,0,*73
1537549571.25,17270,23.19,74074.0,6.29,-20.99,-21.13,0,*70
1537549572.52,17271,23.19,74074.8,6.27,-21.13,-21.23,0,*7F
1537549573.78,17272,23.19,74070.0,6.29,-21.23,-21.27,0,*75
1537549575.03,17273,23.19,74074.8,6.29,-21.27,-21.53,0,*73
1537549576.26,17274,23.19,74078.3,6.29,-21.87,-21.93,0,*72
1537549577.49,17275,23.19,74076.3,6.29,-21.87,-22.03,0,*79
1537549578.77,17276,23.19,74072.3,6.31,-21.87,-21.97,0,*7D
1537549580.03,17277,23.19,74072.5,6.29,-21.87,-21.87,0,*74
1537549581.28,17278,23.13,74072.8,6.29,-21.83,-21.87,0,*7F
1537549582.53,17279,23.19,74078.0,6.31,-21.97,-22.11,0,*7E
1537549583.74,17280,23.19,74078.8,6.29,-21.93,-21.93,0,*7C
1537549584.96,17281,23.19,74080.5,6.29,-21.43,-21.53,0,*7C
1537549586.25,17282,23.19,74076.5,6.27,-21.53,-21.53,0,*70
1537549587.5,17283,23.19,74076.0,6.29,-21.53,-21.57,0,*7B
1537549588.78,17284,23.19,74074.8,6.31,-21.33,-21.33,0,*71
1537549590.04,17285,23.19,74072.8,6.31,-21.17,-21.23,0,*77
1537549591.29,17286,23.19,74076.3,6.37,-20.99,-20.99,0,*75
1537549592.52,17287,23.19,74078.0,6.31,-21.09,-21.17,0,*7D
1537549593.76,17288,23.19,74076.8,6.35,-20.89,-20.89,0,*79
1537549595.01,17289,23.19,74076.8,6.35,-20.99,-21.13,0,*7B
1537549596.29,17290,23.13,74078.3,6.35,-20.99,-20.99,0,*70
1537549597.57,17291,23.13,74076.3,6.35,-20.99,-20.99,0,*71
1537549598.8,17292,23.13,74072.8,6.37,-20.89,-20.99,0,*71
1537549600.03,17293,23.13,74070.5,6.37,-20.89,-21.03,0,*72
1537549601.25,17294,23.19,74074.0,6.37,-21.03,-21.13,0,*77
1537549602.48,17295,23.19,74074.3,6.39,-20.93,-20.93,0,*79
1537549603.76,17296,23.13,74078.0,6.39,-20.83,-20.83,0,*7A
1537549604.99,17297,23.19,74078.0,6.37,-20.99,-21.13,0,*76
1537549606.22,17298,23.19,74078.3,6.39,-20.93,-20.93,0,*74
1537549607.46,17299,23.13,74076.5,6.41,-20.79,-20.79,0,*7A
1537549608.7,17300,23.19,74076.3,6.41,-20.79,-20.89,0,*74
1537549609.93,17301,23.19,74078.5,6.41,-20.89,-21.03,0,*79
1537549611.16,17302,23.19,74076.0,6.43,-20.89,-20.93,0,*70
1537549612.38,17303,23.19,74080.3,6.43,-20.93,-21.09,0,*78
1537549613.63,17304,23.13,74078.0,6.45,-20.83,-20.83,0,*7B
1537549614.87,17305,23.13,74078.3,6.43,-20.89,-20.89,0,*7C
1537549616.1,17306,23.13,74078.5,6.45,-20.83,-20.89,0,*73
1537549617.36,17307,23.19,74076.5,6.47,-20.89,-20.99,0,*7B
1537549618.55,17308,23.19,74076.5,6.45,-21.13,-21.13,0,*77
1537549619.78,17309,23.19,74078.8,6.45,-21.03,-21.17,0,*73
1537549621.0,17310,23.19,74076.0,6.47,-21.47,-21.47,0,*7C
1537549622.28,17311,23.19,74078.8,6.47,-21.67,-21.67,0,*7D
1537549623.5,17312,23.19,74082.3,6.47,-21.63,-21.63,0,*7E
1537549624.73,17313,23.13,74078.8,6.47,-21.47,-21.43,0,*7B
1537549625.95,17314,23.19,74080.0,6.47,-21.47,-21.47,0,*78
1537549627.2,17315,23.19,74078.5,6.47,-21.77,-21.83,0,*72
1537549628.45,17316,23.19,74082.3,6.45,-21.83,-21.83,0,*78
1537549629.7,17317,23.19,74080.0,6.47,-21.97,-22.11,0,*76
1537549630.95,17318,23.13,74076.3,6.47,-22.11,-22.21,0,*77
1537549632.19,17319,23.13,74082.3,6.45,-22.21,-22.21,0,*77
1537549633.45,17320,23.19,74082.8,6.43,-22.17,-22.27,0,*78
1537549634.68,17321,23.19,74080.5,6.41,-22.27,-22.31,0,*7F
1537549635.9,17322,23.13,74080.0,6.45,-22.11,-22.21,0,*7C
1537549637.15,17323,23.13,74078.0,6.43,-22.17,-22.27,0,*7B
1537549638.4,17324,23.13,74078.0,6.43,-22.03,-22.17,0,*7A
1537549639.66,17325,23.19,74080.5,6.43,-22.17,-22.27,0,*7D
1537549640.86,17326,23.13,74080.0,6.41,-22.27,-22.27,0,*7F
1537549642.12,17327,23.13,74080.0,6.41,-22.17,-22.17,0,*7E
1537549643.35,17328,23.13,74078.3,6.41,-22.17,-22.27,0,*72
1537549644.61,17329,23.13,74080.8,6.41,-21.83,-21.87,0,*74
1537549645.87,17330,23.13,74076.5,6.41,-21.87,-21.87,0,*78
1537549647.09,17331,23.13,74080.5,6.41,-21.97,-22.11,0,*74
1537549648.32,17332,23.13,74084.0,6.41,-21.73,-21.83,0,*75
1537549649.6,17333,23.19,74082.5,6.43,-21.67,-21.67,0,*79
1537549650.82,17334,23.19,74084.3,6.43,-21.63,-21.63,0,*7E
1537549652.09,17335,23.13,74084.3,6.43,-21.83,-21.97,0,*7A
1537549653.35,17336,23.13,74084.3,6.41,-21.83,-21.87,0,*7A
1537549654.57,17337,23.19,74086.0,6.41,-21.83,-21.73,0,*70
1537549655.85,17338,23.19,74084.8,6.43,-21.83,-21.83,0,*72
1537549657.11,17339,23.13,74084.0,6.41,-21.87,-21.87,0,*71
1537549658.33,17340,23.13,74078.3,6.43,-22.03,-22.03,0,*7D
1537549659.58,17341,23.13,74080.8,6.41,-21.97,-21.97,0,*7E
1537549660.83,17342,23.13,74084.3,6.43,-21.87,-22.03,0,*70
1537549662.03,17343,23.13,74082.3,6.41,-22.11,-22.03,0,*7F
1537549663.28,17344,23.13,74078.3,6.41,-21.97,-21.97,0,*7B
1537549664.53,17345,23.13,74078.8,6.43,-21.73,-21.67,0,*7D
1537549665.75,17346,23.13,74078.3,6.41,-21.83,-21.73,0,*76
1537549666.95,17347,23.13,74078.8,6.41,-21.63,-21.63,0,*78
1537549668.15,17348,23.13,74080.3,6.41,-21.63,-21.63,0,*77
1537549669.43,17349,23.13,74080.5,6.43,-21.67,-21.83,0,*7E
1537549670.63,17350,23.13,74080.0,6.41,-22.11,-22.27,0,*7B
1537549671.91,17351,23.13,74078.8,6.43,-21.87,-21.97,0,*7C
1537549673.15,17352,23.19,74084.3,6.41,-21.83,-21.97,0,*79
1537549674.38,17353,23.13,74082.3,6.41,-21.97,-22.11,0,*70
1537549675.6,17354,23.13,74074.0,6.41,-21.67,-21.73,0,*7F
1537549676.83,17355,23.13,74076.0,6.41,-21.73,-21.83,0,*74
1537549678.09,17356,23.13,74078.5,6.41,-21.83,-21.87,0,*7C
1537549679.34,17357,23.13,74078.0,6.43,-21.87,-22.03,0,*74
1537549680.59,17358,23.13,74078.3,6.41,-21.97,-21.97,0,*76
1537549681.84,17359,23.13,74082.3,6.41,-21.83,-21.87,0,*73
1537549683.1,17360,23.13,74076.3,6.41,-21.87,-21.97,0,*7C
1537549684.34,17361,23.13,74078.8,6.43,-21.97,-22.11,0,*73
1537549685.62,17362,23.13,74082.0,6.43,-21.87,-21.97,0,*7C
1537549686.89,17363,23.13,74086.0,6.43,-21.83,-21.97,0,*79
1537549688.17,17364,23.13,74082.0,6.43,-21.87,-21.97,0,*7A
1537549689.39,17365,23.13,74082.8,6.43,-22.11,-22.27,0,*7F
1537549690.63,17366,23.13,74080.5,6.41,-22.17,-22.27,0,*78
1537549691.88,17367,23.13,74082.3,6.41,-22.31,-22.31,0,*7A
1537549693.13,17368,23.13,74082.0,6.41,-22.31,-22.31,0,*75
1537549694.39,17369,23.13,74084.0,6.41,-22.31,-22.31,0,*74
1537549695.61,17370,23.13,74080.8,6.41,-22.31,-22.41,0,*7B
1537549696.87,17371,23.13,74080.0,6.41,-22.17,-22.31,0,*79
1537549698.13,17372,23.13,74082.3,6.41,-22.17,-22.17,0,*7E
1537549699.42,17373,23.13,74084.0,6.39,-22.47,-22.47,0,*70
1537549700.7,17374,23.13,74082.5,6.39,-22.47,-22.47,0,*77
1537549701.93,17375,23.13,74084.8,6.39,-22.37,-22.37,0,*76
1537549703.19,17376,23.13,74082.3,6.39,-22.47,-22.53,0,*70
1537549704.39,17377,23.13,74078.0,6.37,-22.57,-22.53,0,*7E